Location: *
(43.2048°N, 0.1612°E)
Time: 21:35:08
(UTC+00:00)

Cosmos 2221 - Pass Details

Date: 30 September 2023
Orbit: 584 x 608 km, 82.5° (Epoch: 06 December)

Event Time Altitude Azimuth Distance (km) Brightness Sun altitude
Exits shadow 03:23:53 24° 357° (N) 1,269 4.3 -27.7°
Drops below altitude 10° 03:25:40 10° 3° (N) 1,959 5.4 -27.4°
Sets 03:27:55 0° 6° (N) 2,871 6.4 -27.0°
